GW2366 Weather Reports


Display with metric or nautical units.
time (UTC)temp
F
wind
direction
speed
MPH
gust
MPH
rain 1hr
in
rain 24hr
in
rain mn
in
humidity
%
barometer
mb
20260902005624 63 304 1.0 2.0 0.00 0.01 0.01 81 1015.8
20260902005120 64 204 2.0 3.0 0.00 0.01 0.01 79 1015.8
20260902004620 64 268 5.0 6.0 0.00 0.01 0.01 79 1015.8
20260902004115 64 247 1.0 2.0 0.00 0.01 0.01 78 1015.9
20260902003610 64 247 1.0 2.0 0.00 0.01 0.01 78 1015.9
20260902003106 64 301 2.0 2.0 0.00 0.01 0.01 77 1015.8
20260902002601 65 319 1.0 1.0 0.00 0.01 0.01 76 1015.7
20260902002056 66 323 2.0 3.0 0.00 0.01 0.01 75 1015.7
20260902001551 65 279 1.0 2.0 0.00 0.01 0.01 74 1015.8
20260902001046 65 287 2.0 2.0 0.00 0.01 0.01 74 1015.7
20260902000540 64 252 1.0 2.0 0.00 0.01 0.01 75 1015.5
20260902000036 64 248 0.0 1.0 0.00 0.01 0.01 76 1015.7
20260901235529 64 261 5.0 6.0 0.00 0.01 0.01 74 1015.7
20260901235025 64 272 3.0 3.0 0.00 0.01 0.01 74 1015.7
20260901234524 64 247 4.0 6.0 0.00 0.01 0.01 72 1015.9
20260901234019 65 269 3.0 3.0 0.00 0.01 0.01 71 1015.4
20260901233514 65 249 3.0 3.0 0.00 0.01 0.01 70 1015.7
20260901233011 65 284 1.0 1.0 0.00 0.01 0.01 70 1015.8
20260901232511 65 284 1.0 1.0 0.00 0.01 0.01 70 1015.8
20260901231601 69 302 3.0 5.0 0.00 0.01 0.01 66 1015.7
20260901231056 69 302 3.0 5.0 0.00 0.01 0.01 66 1015.7
20260901230551 68 245 3.0 3.0 0.00 0.01 0.01 65 1015.7
20260901230046 68 245 3.0 3.0 0.00 0.01 0.01 65 1015.7
20260901225541 68 290 3.0 3.0 0.00 0.01 0.01 67 1015.5
20260901223209 66 289 2.0 3.0 0.00 0.01 0.01 70 1015.9
20260901222706 66 289 2.0 3.0 0.00 0.01 0.01 70 1015.9
20260901222202 67 311 3.0 3.0 0.00 0.01 0.01 70 1016.0
20260901221657 69 241 2.0 2.0 0.00 0.01 0.01 67 1016.0
20260901221153 68 291 3.0 6.0 0.00 0.01 0.01 68 1015.9
20260901220652 68 322 1.0 2.0 0.00 0.01 0.01 68 1016.1
20260901220151 67 275 2.0 3.0 0.00 0.01 0.01 69 1016.1
20260901215649 67 275 2.0 3.0 0.00 0.01 0.01 69 1016.1
20260901214327 69 289 4.0 7.0 0.00 0.01 0.01 64 1016.0
20260901213822 69 289 4.0 7.0 0.00 0.01 0.01 64 1016.0
20260901213322 69 289 4.0 7.0 0.00 0.01 0.01 64 1016.0
20260901212816 68 345 2.0 2.0 0.00 0.01 0.01 63 1015.8
20260901212312 68 291 4.0 6.0 0.00 0.01 0.01 64 1015.8
20260901211808 69 296 2.0 3.0 0.00 0.01 0.01 64 1015.9
20260901211304 70 319 1.0 1.0 0.00 0.01 0.01 61 1015.8
20260901210759 70 319 1.0 1.0 0.00 0.01 0.01 61 1015.8
20260901210255 70 289 3.0 5.0 0.00 0.01 0.01 62 1015.7
20260901205751 70 289 3.0 5.0 0.00 0.01 0.01 62 1015.7
20260901205250 70 236 4.0 5.0 0.00 0.01 0.01 61 1015.8
20260901204745 69 328 3.0 3.0 0.00 0.01 0.01 64 1015.7
20260901203927 70 268 3.0 3.0 0.00 0.01 0.01 61 1015.7
20260901203423 70 268 3.0 3.0 0.00 0.01 0.01 61 1015.7
20260901202918 69 11 0.0 1.0 0.00 0.01 0.01 63 1015.7
20260901202414 70 212 4.0 5.0 0.00 0.01 0.01 65 1015.9
20260901201909 69 281 1.0 2.0 0.00 0.01 0.01 65 1015.9
20260901201408 69 281 1.0 2.0 0.00 0.01 0.01 65 1015.9
20260901200902 69 244 3.0 3.0 0.00 0.01 0.01 65 1016.2
20260901200358 69 328 1.0 1.0 0.00 0.01 0.01 69 1016.1
20260901195856 69 328 1.0 1.0 0.00 0.01 0.01 69 1016.1
20260901195349 67 277 1.0 1.0 0.00 0.01 0.01 70 1016.2
20260901194844 67 277 1.0 1.0 0.00 0.01 0.01 70 1016.2
20260901194338 68 267 3.0 3.0 0.00 0.01 0.01 67 1016.3
20260901193836 70 308 1.0 2.0 0.00 0.01 0.01 65 1016.0
20260901193334 70 308 1.0 2.0 0.00 0.01 0.01 65 1016.0
20260901192829 66 248 1.0 1.0 0.00 0.01 0.01 71 1016.2
20260901192324 66 248 1.0 1.0 0.00 0.01 0.01 71 1016.2
20260901191821 65 307 0.0 0.0 0.00 0.01 0.01 73 1016.1
20260901191316 68 193 3.0 6.0 0.00 0.01 0.01 70 1016.1
20260901190812 68 293 1.0 1.0 0.00 0.01 0.01 67 1016.3
20260901190311 68 325 0.0 1.0 0.00 0.01 0.01 70 1016.2
20260901185809 67 204 2.0 2.0 0.00 0.01 0.01 71 1016.4
20260901184101 68 303 3.0 3.0 0.00 0.01 0.01 72 1016.3
20260901183556 68 303 3.0 3.0 0.00 0.01 0.01 72 1016.3
20260901183051 66 277 1.0 1.0 0.00 0.01 0.01 76 1016.2
20260901182547 64 317 1.0 1.0 0.00 0.01 0.01 78 1016.3
20260901182042 65 289 3.0 3.0 0.00 0.01 0.01 77 1016.2
20260901181541 67 273 2.0 2.0 0.00 0.01 0.01 73 1016.2
20260901181040 67 295 2.0 2.0 0.00 0.01 0.01 75 1016.1
20260901180539 67 339 1.0 2.0 0.00 0.01 0.01 75 1015.9
20260901175813 66 319 0.0 1.0 0.00 0.01 0.01 79 1016.0
20260901175308 66 319 0.0 1.0 0.00 0.01 0.01 79 1016.0
20260901174803 64 216 3.0 3.0 0.00 0.01 0.01 82 1016.0
20260901174259 64 216 3.0 3.0 0.00 0.01 0.01 82 1016.0
20260901173754 63 324 0.0 0.0 0.00 0.01 0.01 85 1015.9
20260901173254 63 330 1.0 3.0 0.00 0.01 0.01 85 1015.9
20260901172751 63 249 1.0 2.0 0.00 0.01 0.01 85 1015.8
20260901172250 62 265 1.0 1.0 0.00 0.01 0.01 85 1015.5
20260901171748 62 296 3.0 6.0 0.00 0.01 0.01 86 1015.5
20260901171248 62 314 0.0 0.0 0.00 0.01 0.01 87 1015.5
20260901170746 62 314 0.0 0.0 0.00 0.01 0.01 87 1015.5
20260901170241 63 263 1.0 1.0 0.00 0.01 0.01 87 1015.4
20260901165555 63 238 1.0 2.0 0.00 0.01 0.01 86 1015.4
20260901165051 63 238 1.0 2.0 0.00 0.01 0.01 86 1015.4
20260901164546 63 298 0.0 0.0 0.00 0.01 0.01 87 1015.4
20260901164041 62 315 0.0 0.0 0.00 0.01 0.01 89 1015.5
20260901163537 62 315 0.0 0.0 0.00 0.01 0.01 89 1015.5
20260901163036 62 296 2.0 2.0 0.00 0.01 0.01 89 1015.4
20260901162531 62 234 3.0 3.0 0.00 0.01 0.01 91 1015.4
20260901162031 60 293 0.0 0.0 0.00 0.01 0.01 93 1015.3
20260901161530 60 276 2.0 3.0 0.00 0.01 0.01 94 1015.4
20260901161029 60 282 0.0 0.0 0.00 0.01 0.01 96 1015.4
20260901160526 59 302 0.0 0.0 0.00 0.01 0.01 97 1015.3
20260901160020 59 262 1.0 1.0 0.00 0.01 0.01 97 1015.2
20260901155514 59 300 0.0 1.0 0.00 0.01 0.01 98 1015.3
20260901155010 58 300 0.0 0.0 0.00 0.01 0.01 98 1015.4
20260901154510 58 300 0.0 0.0 0.00 0.01 0.01 98 1015.4
20260901154009 58 300 0.0 0.0 0.00 0.01 0.01 98 1015.4
20260901153332 57 300 0.0 1.0 0.00 0.00 0.00 98 1015.1
20260901152831 57 300 0.0 1.0 0.00 0.00 0.00 98 1015.1
20260901152331 57 322 0.0 0.0 0.00 0.00 0.00 98 1015.0
20260901151826 57 322 0.0 0.0 0.00 0.00 0.00 98 1015.0
20260901151326 57 322 0.0 0.0 0.00 0.00 0.00 98 1015.0
20260901150820 57 317 0.0 0.0 0.00 0.00 0.00 99 1014.9
20260901150318 57 317 0.0 0.0 0.00 0.00 0.00 99 1014.9
20260901145815 57 299 0.0 0.0 0.00 0.00 0.00 99 1014.7
20260901145310 57 299 0.0 0.0 0.00 0.00 0.00 99 1014.7
20260901144805 57 299 0.0 0.0 0.00 0.00 0.00 99 1014.6
20260901144300 57 281 1.0 1.0 0.00 0.00 0.00 99 1014.4
20260901143755 57 293 1.0 1.0 0.00 0.00 0.00 99 1014.5
20260901143210 56 299 0.0 1.0 0.00 0.00 0.00 99 1014.3
20260901142707 56 299 0.0 1.0 0.00 0.00 0.00 99 1014.3
20260901142206 56 299 0.0 0.0 0.00 0.00 0.00 99 1014.3
20260901141701 56 301 0.0 0.0 0.00 0.00 0.00 99 1014.1
20260901141201 56 273 1.0 1.0 0.00 0.00 0.00 99 1014.0
20260901140659 56 286 0.0 0.0 0.00 0.00 0.00 99 1014.0
20260901140158 56 307 0.0 0.0 0.00 0.00 0.00 99 1014.3
20260901135653 56 293 0.0 1.0 0.00 0.00 0.00 99 1014.0
20260901134854 56 315 0.0 0.0 0.00 0.00 0.00 99 1013.7
20260901134348 56 315 0.0 0.0 0.00 0.00 0.00 99 1013.7
20260901133843 56 296 0.0 0.0 0.00 0.00 0.00 99 1013.6
20260901133342 56 296 0.0 0.0 0.00 0.00 0.00 99 1013.6
20260901132840 56 298 0.0 0.0 0.00 0.00 0.00 99 1013.5
20260901132336 56 287 1.0 1.0 0.00 0.00 0.00 99 1013.5
20260901131836 55 278 0.0 0.0 0.00 0.00 0.00 99 1013.4
20260901131335 55 293 0.0 0.0 0.00 0.00 0.00 99 1013.5
20260901130830 55 295 0.0 0.0 0.00 0.00 0.00 99 1013.5
20260901130325 55 285 0.0 0.0 0.00 0.00 0.00 99 1013.3
20260901125823 55 285 0.0 0.0 0.00 0.00 0.00 99 1013.3
20260901125322 55 285 0.0 0.0 0.00 0.00 0.00 99 1013.6
20260901124817 55 286 0.0 0.0 0.00 0.00 0.00 99 1013.5
20260901124313 55 286 0.0 0.0 0.00 0.00 0.00 99 1013.4
20260901123812 55 286 0.0 0.0 0.00 0.00 0.00 99 1013.3
20260901123307 55 286 0.0 0.0 0.00 0.00 0.00 99 1013.3
20260901122805 54 286 0.0 0.0 0.00 0.00 0.00 99 1013.2
20260901122301 54 286 0.0 0.0 0.00 0.00 0.00 99 1013.1
20260901121759 54 286 0.0 0.0 0.00 0.00 0.00 99 1013.3
20260901121255 54 286 0.0 0.0 0.00 0.00 0.00 99 1013.0
20260901120754 54 286 0.0 0.0 0.00 0.00 0.00 99 1013.3
20260901115959 54 286 0.0 0.0 0.00 0.00 0.00 99 1013.2
20260901115454 54 286 0.0 0.0 0.00 0.00 0.00 99 1013.2
20260901114952 54 286 0.0 0.0 0.00 0.00 0.00 99 1013.3
20260901114447 53 286 0.0 0.0 0.00 0.00 0.00 99 1013.3
20260901113945 53 286 0.0 0.0 0.00 0.00 0.00 99 1013.3
20260901113444 53 286 0.0 0.0 0.00 0.00 0.00 99 1013.1
20260901112940 53 286 0.0 0.0 0.00 0.00 0.00 99 1013.2
20260901112435 53 286 0.0 0.0 0.00 0.00 0.00 99 1013.4
20260901111930 53 286 0.0 0.0 0.00 0.00 0.00 99 1013.4
20260901111428 54 286 0.0 0.0 0.00 0.00 0.00 99 1013.2
20260901110927 54 288 0.0 0.0 0.00 0.00 0.00 99 1013.5
20260901110423 54 288 0.0 0.0 0.00 0.00 0.00 99 1013.5
20260901105919 54 286 0.0 0.0 0.00 0.00 0.00 99 1013.5
20260901105414 53 292 0.0 0.0 0.00 0.00 0.00 99 1013.6
20260901104910 54 292 0.0 0.0 0.00 0.00 0.00 99 1013.7
20260901104405 54 292 0.0 0.0 0.00 0.00 0.00 99 1013.7
20260901103901 53 292 0.0 0.0 0.00 0.00 0.00 99 1013.6
20260901103400 53 292 0.0 0.0 0.00 0.00 0.00 99 1013.5
20260901102855 53 292 0.0 0.0 0.00 0.00 0.00 99 1013.5
20260901102355 53 292 0.0 0.0 0.00 0.00 0.00 99 1013.4
20260901101850 52 296 0.0 0.0 0.00 0.00 0.00 99 1013.4
20260901101345 52 296 0.0 0.0 0.00 0.00 0.00 99 1013.4
20260901100845 51 290 0.0 0.0 0.00 0.00 0.00 99 1013.5
20260901100339 50 277 0.0 0.0 0.00 0.00 0.00 99 1013.5
20260901095838 50 287 0.0 0.0 0.00 0.00 0.00 99 1013.5
20260901094743 49 282 0.0 0.0 0.00 0.00 0.00 99 1013.4
20260901094238 49 282 0.0 0.0 0.00 0.00 0.00 99 1013.4
20260901093733 49 284 0.0 0.0 0.00 0.00 0.00 99 1013.4
20260901093231 49 287 0.0 0.0 0.00 0.00 0.00 99 1013.1
20260901092728 49 287 0.0 0.0 0.00 0.00 0.00 99 1013.0
20260901092224 49 294 0.0 0.0 0.00 0.00 0.00 99 1013.0
20260901091719 49 292 0.0 0.0 0.00 0.00 0.00 99 1013.4
20260901091214 49 292 0.0 0.0 0.00 0.00 0.00 99 1013.2
20260901090708 50 286 0.0 0.0 0.00 0.00 0.00 99 1013.1
20260901090204 50 290 0.0 0.0 0.00 0.00 0.00 99 1013.2
20260901085700 50 281 0.0 0.0 0.00 0.00 0.00 99 1013.1
20260901085155 50 283 0.0 0.0 0.00 0.00 0.00 99 1013.2
20260901084652 50 282 0.0 0.0 0.00 0.00 0.00 99 1013.3
20260901084148 50 289 0.0 0.0 0.00 0.00 0.00 99 1013.3
20260901083647 50 276 0.0 0.0 0.00 0.00 0.00 99 1013.2
20260901083146 51 292 0.0 0.0 0.00 0.00 0.00 99 1013.0
20260901082640 50 292 0.0 0.0 0.00 0.00 0.00 99 1012.8
20260901082136 50 292 0.0 0.0 0.00 0.00 0.00 99 1012.8
20260901081631 51 300 0.0 0.0 0.00 0.00 0.00 99 1012.9
20260901081126 51 300 0.0 0.0 0.00 0.00 0.00 99 1012.9
20260901080625 51 293 0.0 0.0 0.00 0.00 0.00 99 1012.9
20260901080124 51 296 0.0 0.0 0.00 0.00 0.00 99 1013.0
20260901075620 51 298 0.0 0.0 0.00 0.00 0.00 99 1013.0
20260901075120 51 291 0.0 0.0 0.00 0.00 0.00 99 1013.2
20260901074619 51 281 1.0 1.0 0.00 0.00 0.00 99 1013.2
20260901074114 51 277 0.0 0.0 0.00 0.00 0.00 98 1012.9
20260901073611 51 262 0.0 1.0 0.00 0.00 0.00 98 1013.1
20260901073111 51 288 0.0 1.0 0.00 0.00 0.00 98 1012.9
20260901072601 52 290 0.0 0.0 0.00 0.00 0.00 98 1012.9
20260901072055 52 292 0.0 0.0 0.00 0.00 0.00 98 1012.9
20260901071550 52 297 0.0 0.0 0.00 0.00 0.00 98 1013.1
20260901071049 52 302 0.0 0.0 0.00 0.00 0.00 98 1012.9
20260901070543 52 300 0.0 0.0 0.00 0.00 0.00 98 1012.9
20260901065404 53 321 0.0 0.0 0.00 0.00 0.00 98 1012.9
20260901064859 53 321 0.0 0.0 0.00 0.00 0.00 98 1012.9
20260901064355 53 300 2.0 2.0 0.00 0.00 0.00 98 1013.0
20260901063852 53 300 2.0 2.0 0.00 0.00 0.00 98 1013.0
20260901063348 53 306 0.0 0.0 0.00 0.00 0.00 98 1013.0
20260901062843 54 298 0.0 0.0 0.00 0.00 0.00 98 1013.0
20260901062046 53 296 0.0 0.0 0.00 0.00 0.00 98 1013.1
20260901061542 53 296 0.0 0.0 0.00 0.00 0.00 98 1013.1
20260901061037 54 296 1.0 1.0 0.00 0.00 0.00 98 1013.1
20260901060531 54 296 1.0 1.0 0.00 0.00 0.00 98 1013.1
20260901060026 54 303 0.0 0.0 0.00 0.00 0.00 97 1013.2
20260901055521 54 303 0.0 0.0 0.00 0.00 0.00 97 1013.2
20260901055018 54 309 0.0 0.0 0.00 0.00 0.00 97 1013.1
20260901054515 54 302 0.0 0.0 0.00 0.00 0.00 97 1013.0
20260901054011 55 292 0.0 0.0 0.00 0.00 0.00 97 1013.0
20260901053506 55 301 0.0 0.0 0.00 0.00 0.00 97 1013.1
20260901053002 55 306 0.0 0.0 0.00 0.00 0.00 96 1013.1
20260901052457 55 241 1.0 1.0 0.00 0.00 0.00 96 1013.2
20260901051950 55 311 0.0 0.0 0.00 0.00 0.00 96 1013.3
20260901051446 55 317 0.0 1.0 0.00 0.00 0.00 96 1013.1
20260901050945 55 266 1.0 1.0 0.00 0.00 0.00 95 1013.0
20260901050440 56 301 0.0 1.0 0.00 0.00 0.00 95 1013.2
20260901045935 56 301 0.0 1.0 0.00 0.00 0.00 95 1013.2
20260901045430 56 303 0.0 0.0 0.00 0.00 0.00 95 1013.2
20260901044924 56 245 1.0 1.0 0.00 0.00 0.00 94 1013.1
20260901044420 56 302 1.0 1.0 0.00 0.00 0.00 94 1013.2
20260901043916 56 319 1.0 2.0 0.00 0.00 0.00 94 1013.0
20260901043412 56 304 0.0 0.0 0.00 0.00 0.00 94 1013.0
20260901042906 56 303 0.0 1.0 0.00 0.00 0.00 94 1013.0
20260901042401 56 325 1.0 2.0 0.00 0.00 0.00 94 1012.8
20260901041857 56 316 0.0 1.0 0.00 0.00 0.00 94 1012.8
20260901041351 56 334 0.0 1.0 0.00 0.00 0.00 94 1012.8
20260901040845 56 283 1.0 3.0 0.00 0.00 0.00 95 1012.7
20260901040344 56 290 2.0 2.0 0.00 0.00 0.00 95 1012.5
20260901035839 56 317 1.0 1.0 0.00 0.00 0.00 95 1012.7
20260901035337 56 332 1.0 2.0 0.00 0.00 0.00 95 1012.5
20260901034836 56 300 1.0 2.0 0.00 0.00 0.00 95 1012.5
20260901034331 56 331 3.0 5.0 0.00 0.00 0.00 95 1012.4
20260901033831 56 310 0.0 0.0 0.00 0.00 0.00 95 1012.3
20260901033330 56 315 2.0 3.0 0.00 0.00 0.00 96 1012.4
20260901032829 57 343 0.0 0.0 0.00 0.00 0.00 95 1012.4
20260901032329 57 302 2.0 3.0 0.00 0.00 0.00 95 1012.4
20260901031824 57 267 2.0 2.0 0.00 0.00 0.00 95 1012.3
20260901031320 57 304 3.0 3.0 0.00 0.00 0.00 95 1012.3
20260901030819 57 331 1.0 2.0 0.00 0.00 0.00 95 1012.2
20260901030315 57 268 1.0 2.0 0.00 0.00 0.00 95 1012.1
20260901025814 57 263 1.0 3.0 0.00 0.00 0.00 95 1012.0
20260901025309 57 280 1.0 2.0 0.00 0.00 0.00 94 1012.0
20260901024804 57 336 3.0 3.0 0.00 0.00 0.00 94 1012.0
20260901024303 57 5 3.0 6.0 0.00 0.00 0.00 94 1012.2
20260901023801 57 323 1.0 1.0 0.00 0.00 0.00 94 1012.3
20260901023256 57 287 5.0 8.0 0.00 0.00 0.00 93 1012.4
20260901022751 57 294 1.0 1.0 0.00 0.00 0.00 93 1012.1
20260901022247 57 325 1.0 1.0 0.00 0.00 0.00 92 1012.2
20260901021742 58 251 2.0 3.0 0.00 0.00 0.00 91 1012.1
20260901021238 58 234 3.0 5.0 0.00 0.00 0.00 91 1012.0
20260901020733 58 319 2.0 3.0 0.00 0.00 0.00 89 1012.0
20260901020228 59 336 1.0 1.0 0.00 0.00 0.00 89 1012.1
20260901015723 59 282 1.0 1.0 0.00 0.00 0.00 88 1012.0
20260901015219 59 280 3.0 5.0 0.00 0.00 0.00 87 1012.1
20260901014719 60 275 3.0 5.0 0.00 0.00 0.00 86 1012.0
20260901014215 60 252 4.0 6.0 0.00 0.00 0.00 85 1012.1
20260901013710 60 242 2.0 2.0 0.00 0.00 0.00 86 1011.9
20260901013206 60 289 5.0 6.0 0.00 0.00 0.00 85 1011.8
20260901012701 60 251 4.0 6.0 0.00 0.00 0.00 84 1011.9
20260901012155 61 283 2.0 3.0 0.00 0.00 0.00 84 1012.0
20260901011651 61 324 1.0 2.0 0.00 0.00 0.00 84 1011.9
20260901011150 61 289 2.0 2.0 0.00 0.00 0.00 83 1012.0
20260901010640 62 268 5.0 6.0 0.00 0.00 0.00 81 1011.8
20260901010139 62 307 1.0 2.0 0.00 0.00 0.00 80 1011.9